CAPE
0 0 0 0 0 0 0 0 0 0 0 0 0 0 0 0 0 0 0 0 0 0 0 0 0 0 0 0 0 0 0 0 0 0 0 0 0 0 0 0 0 0 0 0
0 0 0 0 0 0 0 0 0 0 0 0 0 0 0 0 0 0 0 0 0 0 0 0 0 0 0 0 0 0 0 0 0 0 0 0 0 0 0 0 0 0 0 0
0 0 0 0 0 0 0 0 0 0 0 0 0 0 0 0 0 0 0 0 0 0 0 0 0 0 0 0 0 0 0 0 0 0 0 0 0 0 0 0 0 0 0 0
0 0 0 0 0 0 0 0 0 0 0 0 0 0 0 0 0 0 0 0 0 0 0 0 0 0 0 0 0 0 0 0 0 0 0 0 0 0 0 0 0 0 0 0
0 0 0 0 0 0 0 0 0 0 0 0 0 0 0 0 0 0 0 0 0 0 0 0 0 0 0 0 0 0 0 0 0 0 0 0 0 0 0 0 0 0 0 0
0 0 0 0 0 0 0 0 0 0 0 0 0 0 0 0 0 0 0 0 0 0 0 0 0 0 0 0 0 0 0 0 0 0 0 0 0 0 0 0 0 0 0 0
0 0 0 0 0 0 0 0 0 0 0 0 0 0 0 0 0 0 0 0 0 0 0 0 0 0 0 0 0 0 0 0 0 0 0 0 0 0 0 0 0 0 0 0
0 0 0 0 0 0 0 0 0 0 0 0 0 0 0 0 0 0 0 0 0 0 0 0 0 0 0 0 0 0 0 0 0 0 0 0 0 0 0 0 0 0 0 0
27 0 0 0 0 0 0 0 0 0 0 0 0 0 0 0 0 0 0 0 0 0 0 0 0 0 0 0 0 0 0 0 0 0 0 0 0 0 0 0 0 0 0 0
56 5 0 39 0 0 0 0 0 15 7 0 0 0 0 0 0 0 0 0 0 0 0 0 0 0 0 0 0 0 0 0 0 0 0 0 0 0 0 0 0 0 0 0
17 25 0 0 0 2 3 6 6 24 45 22 0 0 16 0 0 0 0 0 0 0 0 0 0 0 0 0 0 0 0 0 0 0 0 0 0 0 0 0 0 0 0 1
3 20 0 0 0 0 3 0 2 0 7 2 0 0 0 0 0 0 0 0 0 0 0 0 0 0 0 0 0 0 0 0 0 0 0 0 0 0 0 0 0 0 1 3
0 0 0 0 0 0 0 1 1 0 29 24 8 0 0 0 0 0 0 0 0 0 0 0 0 0 0 0 0 0 0 0 0 0 0 0 0 0 0 0 0 0 2 2
0 0 0 0 0 0 0 17 8 20 0 0 7 1 0 0 0 0 0 8 0 0 0 0 0 0 0 0 0 0 0 0 0 0 0 0 0 0 0 0 0 6 3 0
0 0 0 0 0 0 0 0 0 0 0 0 0 0 0 0 0 29 62 6 2 2 0 0 0 0 0 0 0 0 0 0 0 0 0 0 0 0 0 0 0 0 3 5
0 0 0 0 0 0 0 0 0 0 0 0 0 0 0 0 0 0 0 4 33 18 0 0 0 0 0 0 0 0 0 0 0 0 0 0 0 0 0 0 0 0 2 1
0 1 0 0 0 0 0 0 0 0 0 0 0 0 0 0 0 0 0 0 41 1 0 0 0 0 0 0 0 0 0 0 0 0 0 0 0 0 0 0 0 0 0 0
0 3 1 0 0 0 0 0 0 0 0 0 0 0 0 2 13 30 49 38 0 0 0 0 0 0 0 0 0 0 0 0 0 0 0 0 0 0 0 0 0 0 0 0
0 0 1 0 0 0 0 0 0 0 0 0 0 1 19 1 25 0 5 0 0 0 0 0 0 0 0 0 0 0 0 0 0 0 0 0 0 0 0 0 0 0 0 0
0 0 2 3 0 0 0 0 0 0 0 22 184 158 0 2 0 0 0 0 0 0 0 0 0 0 0 0 0 0 0 0 0 0 0 0 0 0 0 0 0 0 0 0
4 19 1 0 0 0 0 0 0 1 0 0 0 3 0 0 0 0 0 0 0 0 0 0 0 0 0 0 0 0 0 0 0 0 0 0 0 0 0 0 0 0 0 0
0 8 7 17 31 0 25 0 32 10 0 0 96 17 0 0 0 0 0 0 0 0 0 0 0 0 0 0 0 0 0 0 0 0 0 0 0 0 0 0 0 0 0 0
0 0 0 5 1 30 28 7 0 1 0 0 0 0 0 0 0 0 0 0 0 0 0 0 0 0 0 0 0 0 0 0 0 0 0 0 0 0 0 0 0 0 0 0
0 13 8 0 0 15 51 1 6 28 143 121 135 0 0 0 0 0 0 0 0 0 0 0 0 0 0 0 0 0 0 0 0 0 0 0 0 0 0 0 0 0 0 0
0 0 0 0 0 0 1 7 0 54 73 63 24 0 0 0 0 0 0 0 0 0 0 0 0 0 0 0 0 0 0 0 0 0 0 0 0 0 0 0 0 0 0 0
0 0 0 0 0 0 0 26 10 64 3 73 0 0 0 0 0 0 0 0 0 0 0 0 0 0 0 0 0 0 0 0 0 0 0 0 0 0 0 0 0 0 0 4
CIN
-0 -0 -0 -0 -0 -0 -0 -0 -0 -0 -0 -0 -0 -0 -0 -0 -0 -0 -0 -0 -0 -0 -0 -0 -0 -0 -0 -0 -0 -0 -0 -0 -0 -0 -0 -0 -0 -0 -0 -0 -0 -0 -0 -0
-0 -0 -0 -0 -0 -0 -0 -0 -0 -0 -0 -0 -0 -0 -0 -0 -0 -0 -0 -0 -0 -0 -0 -0 -0 -0 -0 -0 -0 -0 -0 -0 -0 -0 -0 -0 -0 -0 -0 -0 -0 -0 -0 -0
-0 -0 -0 -0 -0 -0 -0 -0 -0 -0 -0 -0 -0 -0 -0 -0 -0 -0 -0 -0 -0 -0 -0 -0 -0 -0 -0 -0 -0 -0 -0 -0 -0 -0 -0 -0 -0 -0 -0 -0 -0 -0 -0 -0
-0 -0 -0 -0 -0 -0 -0 -0 -0 -0 -0 -0 -0 -0 -0 -0 -0 -0 -0 -0 -0 -0 -0 -0 -0 -0 -0 -0 -0 -0 -0 -0 -0 -0 -0 -0 -0 -0 -0 -0 -0 -0 -0 -0
-0 -0 -0 -0 -0 -0 -0 -0 -0 -0 -0 -0 -0 -0 -0 -0 -0 -0 -0 -0 -0 -0 -0 -0 -0 -0 -0 -0 -0 -0 -0 -0 -0 -0 -0 -0 -0 -0 -0 -0 -0 -0 -0 -0
-0 -0 -0 -0 -0 -0 -0 -0 -0 -0 -0 -0 -0 -0 -0 -0 -0 -0 -0 -0 -0 -0 -0 -0 -0 -0 -0 -0 -0 -0 -0 -0 -0 -0 -0 -0 -0 -0 -0 -0 -0 -0 -0 -0
-0 -0 -0 -0 -0 -0 -0 -0 -0 -0 -0 -0 -0 -0 -0 -0 -0 -0 -0 -0 -0 -0 -0 -0 -0 -0 -0 -0 -0 -0 -0 -0 -0 -0 -0 -0 -0 -0 -0 -0 -0 -0 -0 -0
-0 -0 -0 -0 -0 -0 -0 -0 -0 -0 -0 -0 -0 -0 -0 -0 -0 -0 -0 -0 -0 -0 -0 -0 -0 -0 -0 -0 -0 -0 -0 -0 -0 -0 -0 -0 -0 -0 -0 -0 -0 -0 -0 -0
-9 -0 -0 -0 -0 -0 -0 -0 -0 -0 -0 -0 -0 -0 -0 -0 -0 -0 -0 -0 -0 -0 -0 -0 -0 -0 -0 -0 -0 -0 -0 -0 -0 -0 -0 -0 -0 -0 -0 -0 -0 -0 -0 -0
-36 -1 -0 -77 -0 -0 -11 -0 -0 -62 -4 -0 -0 -0 -0 -0 -0 -0 -0 -0 -0 -0 -0 -0 -0 -0 -0 -0 -0 -0 -0 -0 -0 -0 -0 -0 -0 -0 -0 -0 -0 -0 -0 -0
-5 -13 -0 -1 -0 -66 -18 -7 -67 -23 -1 -2 -0 -0 -50 -0 -0 -0 -0 -0 -0 -0 -0 -0 -0 -0 -0 -0 -0 -0 -0 -0 -0 -0 -0 -0 -0 -0 -0 -0 -0 -0 -0 -3
-67 -18 -0 -0 -0 -1 -5 -0 -0 -0 -0 -0 -0 -0 -0 -0 -0 -0 -0 -0 -0 -0 -0 -0 -0 -0 -0 -0 -0 -0 -0 -0 -0 -0 -0 -0 -0 -0 -0 -0 -0 -0 -2 -1
-0 -0 -0 -0 -0 -0 -0 -0 -0 -0 -0 -0 -0 -0 -0 -0 -0 -0 -0 -0 -0 -0 -0 -0 -0 -0 -0 -0 -0 -0 -0 -0 -0 -0 -0 -0 -0 -0 -0 -0 -0 -3 -7 -5
-0 -0 -0 -0 -0 -0 -0 -8 -9 -45 -0 -0 -3 -1 -0 -0 -0 -0 -0 -52 -0 -56 -0 -0 -0 -0 -0 -0 -0 -0 -0 -0 -0 -0 -0 -0 -0 -0 -0 -0 -0 -10 -6 -2
-0 -0 -0 -0 -0 -0 -0 -0 -0 -0 -0 -0 -0 -0 -0 -0 -0 -53 -18 -14 -72 -38 -0 -0 -0 -0 -0 -0 -0 -0 -0 -0 -0 -0 -0 -0 -0 -0 -0 -0 -0 -0 -6 -7
-0 -0 -0 -0 -0 -0 -0 -0 -0 -0 -0 -0 -0 -0 -0 -0 -0 -0 -0 -14 -61 -107 -0 -0 -0 -0 -0 -0 -0 -0 -0 -0 -0 -0 -0 -0 -0 -0 -0 -0 -0 -2 -8 -13
-0 -11 -0 -0 -0 -0 -0 -0 -0 -0 -0 -0 -0 -0 -0 -0 -0 -0 -0 -0 -50 -22 -0 -0 -0 -0 -0 -0 -0 -0 -0 -0 -0 -0 -0 -0 -0 -0 -0 -0 -0 -0 -0 -0
-0 -19 -15 -0 -0 -0 -0 -0 -0 -0 -0 -0 -0 -0 -0 -55 -102 -97 -138 -49 -0 -0 -0 -0 -0 -0 -0 -0 -0 -0 -0 -0 -0 -0 -0 -0 -0 -0 -0 -0 -0 -0 -0 -0
-0 -0 -17 -0 -0 -0 -0 -0 -0 -0 -0 -0 -0 -21 -109 -47 -144 -0 -158 -0 -0 -0 -0 -0 -0 -0 -0 -0 -0 -0 -0 -0 -0 -0 -0 -0 -0 -0 -0 -0 -0 -0 -0 -0
-0 -0 -21 -18 -0 -0 -0 -0 -0 -2 -0 -10 -24 -52 -0 -123 -0 -0 -0 -0 -0 -0 -0 -0 -0 -0 -0 -0 -0 -0 -0 -0 -0 -0 -0 -0 -0 -0 -0 -0 -0 -0 -0 -0
-15 -22 -1 -0 -0 -0 -0 -0 -0 -2 -0 -0 -0 -27 -0 -0 -0 -0 -0 -0 -0 -0 -0 -0 -0 -0 -0 -0 -0 -0 -0 -0 -0 -0 -0 -0 -0 -0 -0 -0 -0 -0 -0 -0
-0 -7 -11 -1 -2 -1 -32 -3 -15 -51 -0 -57 -53 -147 -0 -0 -0 -0 -0 -0 -0 -0 -0 -0 -0 -0 -0 -0 -0 -0 -0 -0 -0 -0 -0 -0 -0 -0 -0 -0 -0 -0 -0 -0
-0 -0 -20 -14 -17 -69 -50 -61 -0 -5 -0 -0 -0 -0 -0 -0 -0 -0 -0 -0 -0 -0 -0 -0 -0 -0 -0 -0 -0 -0 -0 -0 -0 -0 -0 -0 -0 -0 -0 -0 -0 -0 -0 -0
-0 -65 -38 -0 -0 -14 -19 -30 -71 -91 -29 -33 -62 -0 -0 -0 -0 -0 -0 -0 -0 -0 -0 -0 -0 -0 -0 -0 -0 -0 -0 -0 -0 -0 -0 -0 -0 -0 -0 -0 -0 -0 -0 -0
-0 -23 -0 -0 -0 -13 -13 -22 -0 -54 -75 -51 -90 -0 -0 -0 -0 -0 -0 -0 -0 -0 -0 -0 -0 -0 -0 -0 -0 -0 -0 -0 -0 -0 -0 -0 -0 -0 -0 -0 -0 -0 -0 -0
-0 -0 -0 -0 -0 -0 -0 -32 -60 -48 -27 -58 -0 -0 -0 -0 -0 -0 -0 -0 -0 -0 -0 -0 -0 -0 -0 -0 -0 -0 -0 -0 -0 -0 -0 -0 -0 -0 -0 -0 -0 -0 -0 -2
Wind_Speed
6 6 13 14 13 14 17 18 17 8 9 4 5 7 9 8 4 9 14 14 14 16 14 16 14 15 13 9 8 5 5 2 3 3 4 4 2 2 3 3 7 6 6 6
9 17 16 16 17 18 18 15 14 6 9 7 10 11 8 8 7 11 14 14 15 12 19 17 16 15 13 10 10 6 5 6 5 3 1 2 2 2 3 4 4 6 6 6
18 10 14 20 21 19 19 11 10 7 6 9 6 10 7 7 8 7 15 17 17 20 22 18 16 13 12 11 10 9 8 6 5 6 2 3 3 4 3 4 4 5 6 6
17 12 20 21 19 20 21 8 10 8 6 10 5 15 8 5 11 11 18 18 17 20 21 17 18 13 12 9 9 10 9 7 6 7 6 6 4 3 2 2 3 5 7 7
27 13 14 17 15 10 16 9 12 10 6 5 10 5 2 7 14 15 12 17 21 21 24 22 18 15 13 11 9 8 10 8 6 6 6 5 5 3 2 3 7 6 6 7
28 13 11 4 11 8 7 3 5 4 1 7 5 5 21 9 15 17 16 7 18 24 20 20 17 18 13 10 9 8 9 7 7 7 7 7 6 5 5 7 6 5 4 4
15 23 22 10 9 13 2 3 3 4 3 12 4 8 16 10 10 9 10 14 21 23 22 20 19 17 14 11 9 8 9 8 7 7 7 6 7 7 7 6 4 5 4 4
5 6 15 13 20 8 10 7 6 6 6 6 5 7 10 2 6 10 14 17 19 17 16 17 17 14 13 12 9 8 9 8 8 7 6 6 7 4 4 5 4 4 5 4
7 6 14 17 10 14 10 8 7 8 13 1 4 11 15 10 6 9 18 17 16 16 16 17 16 14 13 11 9 8 8 9 8 7 6 6 6 7 5 6 6 6 6 6
8 8 3 9 11 3 5 6 7 3 3 6 8 7 5 7 8 10 15 19 17 16 17 14 13 12 11 11 10 10 9 9 8 7 6 6 6 6 6 7 8 6 5 5
1 2 6 4 4 6 5 2 6 4 5 4 3 5 6 8 9 8 12 11 13 14 13 12 13 11 12 11 10 8 8 8 7 6 7 7 6 6 6 7 6 5 5 7
5 3 5 6 4 8 2 4 3 3 1 3 4 5 11 12 16 8 10 8 12 12 12 14 14 14 12 10 9 9 7 7 6 6 7 6 5 5 7 6 5 5 6 7
5 4 5 9 3 1 4 4 3 3 2 2 1 5 16 12 13 10 10 10 12 9 12 10 10 9 10 11 10 8 7 6 6 6 6 6 6 7 5 5 5 4 6 6
7 1 3 5 8 6 5 7 8 7 4 3 4 12 12 11 3 5 12 12 16 20 16 12 9 9 9 8 9 9 7 6 6 6 6 7 6 6 5 5 6 4 5 5
5 7 8 15 17 13 14 14 12 7 8 6 14 12 13 10 8 13 8 12 15 18 15 14 13 12 9 8 8 7 6 5 6 6 8 6 6 6 5 5 5 5 5 5
6 7 5 10 14 15 15 13 16 11 9 13 13 15 10 10 13 14 9 12 14 19 19 17 16 15 13 9 7 7 5 6 7 6 7 7 6 5 5 6 6 6 5 7
6 4 5 9 6 7 6 11 8 7 6 8 9 15 14 15 13 16 14 11 10 21 21 19 16 14 12 9 9 7 6 6 6 7 8 6 4 5 6 6 6 6 6 6
8 4 3 3 2 3 9 9 10 11 15 12 12 12 14 5 9 4 4 2 18 22 20 18 14 14 13 8 8 8 7 5 7 8 8 5 4 6 6 6 5 6 5 7
10 11 4 3 4 10 15 20 4 13 18 19 14 9 4 7 4 11 7 11 15 16 15 14 14 14 14 11 10 9 7 7 8 7 7 5 6 6 5 6 6 6 7 7
15 13 8 2 5 11 21 11 9 6 10 5 3 4 4 6 5 3 10 14 19 17 17 16 15 15 13 10 11 10 9 7 7 7 6 5 6 6 6 6 8 7 7 8
0 2 9 12 7 12 9 9 16 15 11 9 8 5 5 4 5 13 16 17 11 12 16 16 13 11 10 8 11 11 9 7 6 8 8 6 6 8 7 8 7 7 6 5
4 4 3 2 7 13 8 12 6 3 4 7 10 4 11 13 12 12 15 17 15 13 13 12 11 9 6 8 11 9 8 6 7 9 9 6 6 7 7 8 6 6 4 4
3 4 2 4 7 6 5 11 15 8 7 3 11 8 18 17 15 14 15 16 16 13 12 11 11 9 9 10 10 8 6 7 8 9 9 6 7 9 7 6 5 3 4 3
3 3 4 4 3 5 3 6 4 14 9 5 5 7 11 13 15 15 13 12 9 11 13 13 11 9 10 10 9 5 6 10 10 7 8 6 6 7 5 4 3 3 2 2
5 3 5 12 9 6 5 5 5 9 7 6 4 5 9 14 13 13 13 12 12 12 11 13 12 9 9 9 7 6 5 11 9 7 6 6 5 5 4 3 3 3 3 5
4 7 5 8 6 11 10 5 3 5 8 6 7 7 10 15 15 14 11 11 12 12 11 12 12 10 11 10 8 7 8 7 9 7 5 4 4 3 3 3 1 5 4 7
Wind_Direction
225 185 223 236 228 239 244 255 264 274 283 359 248 258 248 231 203 175 176 178 181 176 147 129 124 121 111 104 104 114 108 316 41 69 68 53 66 76 64 70 87 74 59 42
261 240 220 236 250 254 256 261 267 263 293 292 288 272 228 228 221 195 188 191 185 142 149 138 133 129 129 130 128 121 117 62 39 40 40 133 170 87 111 87 69 63 71 51
237 236 229 229 241 254 262 265 273 244 290 292 299 273 267 265 235 222 210 192 187 163 155 146 142 135 133 126 128 125 106 88 49 7 51 20 41 46 38 43 36 35 48 49
257 243 245 257 258 236 254 232 282 269 247 260 225 278 239 269 273 257 239 203 184 169 154 145 142 135 134 130 108 108 102 88 65 37 42 58 68 69 40 75 40 47 36 44
247 282 275 269 275 285 278 227 249 265 272 317 263 267 222 232 267 273 239 222 194 156 150 147 140 132 126 118 113 114 110 101 79 65 61 58 52 36 32 37 54 30 30 48
259 270 265 266 306 315 339 6 340 310 147 264 230 193 276 245 248 254 267 190 140 140 138 133 129 125 122 115 114 112 113 106 89 80 68 72 59 36 47 42 39 18 24 28
260 251 257 261 296 293 250 42 3 287 208 252 161 226 237 278 301 278 155 123 129 133 134 132 125 126 123 122 122 118 117 107 98 87 74 68 59 58 69 58 43 26 20 20
222 291 217 216 220 202 218 156 183 218 233 264 333 250 252 200 60 43 57 119 118 120 125 125 125 124 124 120 115 108 119 113 98 88 75 65 61 55 60 58 54 41 31 10
327 287 341 320 269 202 240 215 212 254 268 255 247 291 299 306 50 43 99 106 107 117 118 118 117 124 126 124 117 113 111 106 93 87 73 68 60 55 45 44 51 41 27 2
180 269 270 312 356 322 181 195 229 53 218 238 246 250 230 56 39 32 98 119 115 115 119 120 120 130 123 117 107 90 95 97 94 84 75 74 69 54 49 56 47 33 5 356
216 210 281 356 271 294 327 54 56 112 206 212 262 294 108 108 104 86 97 104 113 128 129 121 124 118 117 110 104 101 96 95 91 91 85 77 63 55 61 60 41 14 2 7
348 188 280 206 269 313 104 331 68 249 279 157 200 235 72 65 47 41 70 110 128 125 127 126 124 124 124 119 108 102 100 94 99 94 97 92 78 63 66 54 26 358 7 9
350 319 322 328 42 15 36 68 286 333 177 229 273 249 25 62 27 40 47 30 43 42 108 122 112 114 117 114 116 110 105 104 103 98 102 87 74 78 64 46 360 340 40 16
102 309 259 250 305 318 263 200 228 158 176 250 234 286 306 309 228 177 171 217 189 187 163 131 117 113 111 105 107 105 101 103 109 100 102 83 72 71 54 22 344 25 37 22
197 222 211 243 279 282 289 286 276 237 233 204 272 239 261 270 250 202 195 230 206 179 145 142 132 118 108 99 100 100 107 109 104 92 93 88 71 69 43 14 25 18 17 49
332 268 236 269 275 286 289 286 283 296 286 285 287 279 258 269 286 283 240 223 206 175 152 145 137 128 121 120 123 118 119 109 98 103 97 81 67 70 48 38 20 13 36 39
259 203 220 254 270 308 321 259 273 282 266 260 263 265 281 272 265 266 263 249 214 148 150 148 147 137 135 141 140 142 133 128 130 108 93 84 68 73 59 36 30 8 34 46
288 292 273 242 314 246 244 238 245 254 261 267 269 272 267 299 311 354 23 196 127 143 147 144 142 140 139 124 135 132 134 139 111 105 108 101 70 81 59 35 28 29 43 47
222 270 250 183 244 284 297 274 351 308 296 290 298 299 17 352 84 15 10 93 130 134 129 128 132 131 124 139 151 139 139 124 112 110 109 100 91 99 77 47 35 36 48 40
223 224 223 271 221 253 255 307 280 343 286 31 3 344 39 35 75 10 22 85 113 121 123 123 134 143 150 148 151 134 126 113 114 116 113 103 101 99 82 70 61 49 49 42
316 15 245 242 238 254 309 303 276 287 271 270 279 260 120 119 172 137 104 88 81 109 123 126 130 129 133 144 124 119 118 123 128 116 109 87 98 94 88 77 70 59 49 46
212 188 173 299 233 265 1 359 315 262 299 335 334 115 117 121 130 131 123 122 121 126 130 123 119 122 130 117 115 118 117 125 111 109 106 83 92 91 84 84 79 71 57 46
277 171 240 246 222 221 250 233 267 288 280 302 302 167 148 153 149 141 133 131 136 143 121 118 112 105 96 95 104 102 134 115 104 105 104 84 92 101 94 97 106 94 60 54
283 286 244 352 300 273 265 278 9 335 237 219 71 198 156 142 141 133 128 134 127 118 121 113 104 101 94 98 92 96 112 109 99 88 115 97 90 106 95 93 115 105 84 65
187 1 286 282 295 293 292 283 318 309 331 98 173 212 153 137 136 136 135 132 121 122 125 145 136 125 116 98 91 68 91 108 102 88 79 90 84 97 113 108 142 158 220 148
165 227 214 253 280 268 270 305 244 266 274 191 153 89 121 134 132 134 128 133 136 148 147 135 127 126 111 98 86 69 52 96 119 108 86 93 91 72 82 112 355 35 111 132